This is the latest recevied weather packets stored in our database for station/object EW1958. If no packets are shown the sender has not sent any weather packets the latest 10 day(s).
| Time | Temp. | Humidity | Pressure | Rain* | Wind** | Luminosity | Snow |
|---|---|---|---|---|---|---|---|
| 1788391758 | 14.44° C | 94% | 1007.6 hPa | 1.78 mm | - | - | - |
| 1788391624 | 14.44° C | 94% | 1007.3 hPa | 1.52 mm | - | - | - |
| 1788390858 | 14.44° C | 93% | 1007.5 hPa | 1.52 mm | - | - | - |
| 1788390557 | 14.44° C | 93% | 1007.5 hPa | 1.52 mm | - | - | - |
| 1788390255 | 14.44° C | 93% | 1007.4 hPa | 1.52 mm | - | - | - |
| 1788389953 | 14.44° C | 93% | 1007.5 hPa | 1.27 mm | - | - | - |
| 1788389836 | 15° C | 92% | 1007.1 hPa | 1.02 mm | - | - | - |
| 1788389826 | 15° C | 92% | 1007.5 hPa | 1.27 mm | - | - | - |
| 1788389794 | 15° C | 92% | 1007.5 hPa | 1.27 mm | - | - | - |
| 1788388753 | 15° C | 91% | 1007.5 hPa | 1.02 mm | - | - | - |
| 1788388453 | 15° C | 90% | 1007.5 hPa | 0.76 mm | - | - | - |
| 1788388151 | 15° C | 90% | 1007.3 hPa | 0.76 mm | - | - | - |
| 1788387863 | 15.56° C | 90% | 1007.1 hPa | 0.51 mm | - | - | - |
| 1788387853 | 15° C | 90% | 1007.2 hPa | 0.76 mm | - | - | - |
| 1788387372 | 15.56° C | 89% | 1007.1 hPa | 0.51 mm | - | - | - |
| 1788386946 | 15.56° C | 88% | 1007 hPa | 0.51 mm | - | - | - |
| 1788386645 | 15.56° C | 87% | 1007 hPa | 0.25 mm | - | - | - |
| 1788386346 | 15.56° C | 87% | 1006.9 hPa | 0.25 mm | - | - | - |
| 1788386049 | 16.11° C | 87% | 1007 hPa | 0.25 mm | - | - | - |
| 1788385872 | 16.11° C | 87% | 1007 hPa | 0.25 mm | - | - | - |
| 1788385445 | 16.11° C | 86% | 1007.2 hPa | 0 mm | - | - | - |
| 1788385146 | 16.67° C | 84% | 1007.3 hPa | 0 mm | - | - | - |
| 1788384849 | 16.67° C | 82% | 1007.2 hPa | 0 mm | - | - | - |
| 1788384669 | 17.22° C | 81% | 1007.2 hPa | 0 mm | - | - | - |
| 1788384241 | 17.22° C | 79% | 1007.3 hPa | 0 mm | - | - | - |
* Rain latest hour (hover to see other rain measurements)
** Current wind speed in m/s (hover to see current wind gust speed)